Tracking 35274 objects as of 10-Sep-2026
HD Live streaming from Space Station
objects crossing your sky now

COSMOS 1408 DEB


COSMOS 1408 DEB is no longer on orbit


NORAD ID: 50932
Int'l Code: 1982-092AWB
Launch date: September 16, 1982
Source: Commonwealth of Independent States (former USSR) (CIS)
Launch site: PLESETSK MISSILE AND SPACE COMPLEX (PKMTR)
Decay date: 2022-01-20

Note: This is SATELLITE DEBRIS
Your satellite tracking list
Your tracking list is empty




NASA's NSSDC Master Catalog

Two Line Element Set (TLE):
1 50932U 82092AWB 22010.61482822  .01229019  00000-0  31569-1 0  9997
2 50932  82.9358  77.1039 0289381 282.8016  74.1022 15.04100663  1004
Source of the keplerian elements: AFSPC